Weather History for Carlsbad, NM

Change the Weather History Date:

Wednesday, November 7, 2012

  Actual Average Record
Temperature  
Mean Temperature 60 °F -  
Max Temperature 80 °F 67 °F 87 °F (2005)
Min Temperature 39 °F 40 °F 23 °F (1959)
Degree Days  
Heating Degree Days 6    
Growing Degree Days 10 (Base 50)    
Moisture  
Dew Point 29 °F    
Average Humidity 36    
Maximum Humidity 60    
Minimum Humidity 18    
Precipitation  
Precipitation 0.00 in - - ()
Sea Level Pressure  
Sea Level Pressure 30.00 in    
Wind  
Wind Speed 6 mph (West)    
Max Wind Speed 10 mph    
Max Gust Speed -    
Visibility 10 miles    
Events      
Averages and records for this station are not official NWS values.
T = Trace of Precipitation, MM = Missing Value Source: NWS Daily Summary

Daily Weather History Graph

Daily Weather History Graph

Search for Another Location

Airport:

Trip Planner

Search our weather history database for the weather conditions in past years. The results will help you decide how hot, cold, wet, or windy it might be!

Date:

Astronomy

Nov. 07, 2012 Rise Set
Actual Time 6:19 AM MST 5:01 PM MST
Civil Twilight 5:54 AM MST 5:26 PM MST
Nautical Twilight 5:24 AM MST 5:56 PM MST
Astronomical Twilight 4:55 AM MST 6:25 PM MST
Moon No Moon Rise 12:50 PM MST (11/7)
Length of Visible Light 11h 32m
Length of Day
10h 41m
Last Quarter, 42% of the Moon is Illuminated
Nov 7
Last Quarter
Nov 13
New
Nov 20
First Quarter
Nov 28
Full
Dec 6
Last Quarter

Hourly Weather History & Observations

Time (MST) Temp. Windchill Dew Point Humidity Pressure Visibility Wind Dir Wind Speed Gust Speed Precip Events Conditions
12:53 AM 48.0 °F - 30.0 °F 50% 30.06 in 10.0 mi North 6.9 mph - N/A   Clear
1:53 AM 46.0 °F 43.9 °F 28.0 °F 50% 30.06 in 10.0 mi NW 4.6 mph - N/A   Clear
2:53 AM 44.1 °F 42.5 °F 28.0 °F 53% 30.06 in 10.0 mi WNW 3.5 mph - N/A   Clear
3:53 AM 43.0 °F 39.5 °F 27.0 °F 53% 30.06 in 10.0 mi NW 5.8 mph - N/A   Clear
4:53 AM 44.1 °F 41.5 °F 27.0 °F 51% 30.08 in 10.0 mi NW 4.6 mph - N/A   Clear
5:53 AM 39.9 °F 35.8 °F 27.0 °F 60% 30.12 in 10.0 mi WNW 5.8 mph - N/A   Clear
6:53 AM 42.1 °F 38.4 °F 28.9 °F 60% 30.14 in 10.0 mi West 5.8 mph - N/A   Clear
7:53 AM 53.1 °F - 28.0 °F 38% 30.13 in 10.0 mi NW 5.8 mph - N/A   Clear
8:53 AM 60.1 °F - 27.0 °F 28% 30.11 in 10.0 mi North 5.8 mph - N/A   Clear
9:53 AM 64.9 °F - 26.1 °F 23% 30.08 in 10.0 mi North 6.9 mph - N/A   Clear
10:53 AM 68.0 °F - 27.0 °F 21% 30.05 in 10.0 mi Calm Calm - N/A   Clear
11:53 AM 72.0 °F - 28.0 °F 20% 30.01 in 10.0 mi Calm Calm - N/A   Clear
12:53 PM 75.0 °F - 30.9 °F 20% 29.96 in 10.0 mi SE 8.1 mph - N/A   Clear
1:53 PM 78.1 °F - 32.0 °F 19% 29.92 in 10.0 mi Variable 5.8 mph - N/A   Clear
2:53 PM 80.1 °F - 33.1 °F 18% 29.91 in 10.0 mi SSE 6.9 mph - N/A   Clear
3:53 PM 79.0 °F - 35.1 °F 20% 29.90 in 10.0 mi SSE 8.1 mph - N/A   Clear
4:53 PM 75.0 °F - 36.0 °F 24% 29.91 in 10.0 mi South 5.8 mph - N/A   Clear
5:53 PM 63.0 °F - 35.1 °F 35% 29.94 in 10.0 mi South 8.1 mph - N/A   Clear
6:53 PM 64.0 °F - 35.1 °F 34% 29.95 in 10.0 mi South 10.4 mph - N/A   Clear
7:53 PM 57.0 °F - 32.0 °F 39% 29.95 in 10.0 mi SSW 9.2 mph - N/A   Clear
8:53 PM 53.1 °F - 28.0 °F 38% 29.94 in 10.0 mi WSW 6.9 mph - N/A   Clear
9:53 PM 50.0 °F - 26.1 °F 39% 29.94 in 10.0 mi SSW 3.5 mph - N/A   Clear
10:53 PM 52.0 °F - 25.0 °F 35% 29.92 in 10.0 mi Calm Calm - N/A   Clear
11:53 PM 48.9 °F - 25.0 °F 39% 29.91 in 10.0 mi NE 3.5 mph - N/A   Clear